Torna al catalogo

STARLINK-37527

AttivoComunicazioniSSO
NORAD 68895·PAYLOAD·🇺🇸 United States

Lanciato Apr 30, 2026 da Vandenberg Space Force Base

Loading…

Prossimi Passaggi (prossime 24 ore)

TLE

AggiornatoSource: CelesTrak SupGP

Epoca: Sep 14, 2026, 15:07 UTC

1 68895C 26097A   26257.63034722 -.00071863  00000+0 -22327-2 0  2570
2 68895  97.2849  91.7837 0001867  87.6488  54.9867 15.33447228    14

Traccia STARLINK-37527 in tempo reale con AllMySat

Download on the App Store